Location: Barbegal
(41.9596°N, 0.0033°W)
Time: 22:16:33
(UTC+00:00)

Daily predictions for brighter satellites

Satellite Brightness Start Highest point End
(mag) Time Altitude Azimuth Time Altitude Azimuth Time Altitude Azimuth
Cosmos 1745 Rocket 4.0 20:00:41 10° S 20:06:51 75° E 20:13:08 10° N
Cosmos 1812 Rocket 3.7 20:07:48 10° N 20:12:09 79° W 20:16:27 10° S
Atlas Centaur 2 3.5 20:09:52 10° SW 20:13:29 20° S 20:17:41 10° SE
Cosmos 1602 Rocket 4.5 20:11:31 10° SSW 20:15:51 54° W 20:20:15 10° N
CREW DRAGON DEMO-1 DEB 2.9 20:14:04 10° SW 20:17:04 53° SE 20:20:04 10° ENE
Cosmos-2242 3.2 20:17:30 10° N 20:21:49 56° E 20:26:07 10° SSE
BREEZE M DEB (TANK) 4.4 20:19:40 10° S 20:23:15 28° ESE 20:32:35 10° ENE
Cosmos 1455 2.5 20:22:21 10° NNW 20:26:13 71° W 20:30:03 10° S
OAO 2 Rocket 4.2 20:22:14 10° WSW 20:27:03 37° S 20:31:38 11° ESE
NOSS 3-3 (A) 3.8 20:23:13 10° SSW 20:28:58 79° ESE 20:35:26 10° NE
NOSS 3-3 (C) 3.8 20:23:19 10° SSW 20:29:04 78° ESE 20:35:32 10° NE
Cosmos 1315 Rocket 4.1 20:25:39 10° NNE 20:29:10 26° ENE 20:32:12 12° SE
Meteor 1-11 4.4 20:24:15 10° SSE 20:29:41 52° E 20:35:13 10° NNE
ATLAS CENTAUR R/B 1.4 20:28:37 10° NNW 20:32:13 52° NE 20:35:13 14° SE
IRIS 4.1 20:28:34 10° W 20:32:33 78° S 20:35:05 11° E
Geosat 4.1 20:27:39 10° SE 20:32:37 68° ENE 20:37:38 10° NNW
SPOT 1/Viking Rocket 4.3 20:36:44 13° SE 20:40:56 37° ENE 20:45:40 10° N
GEOS 3 Rocket 4.4 20:39:44 10° NE 20:44:29 31° ESE 20:49:12 10° S
Cosmos 1400 Rocket 3.0 20:41:36 10° NNW 20:45:31 68° W 20:49:22 10° S
Cosmos 1980 4.4 20:40:33 10° SSE 20:45:33 34° ESE 20:50:34 10° NE
H-2A ROCKET BODY 4.3 20:43:58 10° SW 20:48:26 24° S 20:56:54 14° SE
Cosmos 2084 3.5 20:44:05 10° NW 20:48:34 82° NE 20:51:53 17° SE
SPOT 3 Rocket 4.4 20:43:36 10° S 20:48:38 50° W 20:53:43 10° NNW
ATLAS 2AS CENTAUR R/B 3.9 20:42:03 10° NNW 20:48:59 36° NE 20:55:18 10° ESE
Lacrosse 5 rocket 4.4 20:50:43 10° N 20:51:11 10° N 20:51:38 10° N
Cosmos 1709 Rocket 4.1 20:44:59 10° S 20:51:18 89° WNW 20:57:42 10° N
Genesis I 3.6 20:47:59 10° S 20:51:38 39° ESE 20:55:17 10° NE
Terra 3.5 20:50:21 13° ESE 20:53:12 21° ENE 20:56:41 10° NNE
Cosmos 2219 Rocket 2.5 20:51:39 10° SSW 20:57:12 72° WNW 21:02:50 10° NNE
Cosmos 1844 4.5 20:53:16 10° NW 20:58:47 49° WSW 21:04:13 10° S
ERS-1 Rocket 3.7 20:56:37 17° SE 20:59:56 38° ENE 21:04:35 10° N
USA 215 3.9 20:55:40 10° ENE 21:01:22 31° SE 21:07:02 10° S
Cosmos 2237 Rocket 2.5 20:57:08 10° S 21:02:29 44° ESE 21:07:52 10° NE
COSMOS 2428 3.0 20:56:59 10° SSW 21:02:38 73° WNW 21:08:20 10° NNE
Cosmos 1538 Rocket 4.3 20:57:55 10° SSW 21:03:16 75° WNW 21:08:37 10° NNE
Resurs 01 Rocket 2.8 21:06:16 10° SSW 21:10:22 38° W 21:14:31 10° NNW
IGS 5A 3.4 21:10:00 20° SSE 21:12:51 88° WSW 21:17:02 10° NNW
Cosmos 2184 Rocket 4.2 21:09:31 17° SSE 21:14:13 52° E 21:20:19 10° NNE
SAR-Lupe-2 3.5 21:11:21 10° NNE 21:14:55 61° ESE 21:16:57 24° S
Cosmos 1943 Rocket 4.5 21:22:26 10° NNE 21:24:45 12° NE 21:27:02 10° ENE
BREEZE-M (TANK) 3.9 21:21:05 10° SSW 21:24:53 55° SE 21:38:53 10° ENE
Cosmos 1892 3.2 21:23:57 33° SE 21:24:57 40° E 21:28:32 10° NNE
Cosmos 2344 3.7 21:20:17 10° S 21:27:32 49° ESE 21:34:53 10° NE
Cosmos 2333 Rocket 3.7 21:22:30 10° SW 21:27:49 39° WNW 21:33:11 10° N
VEP-3 4.4 21:23:55 10° SW 21:28:27 21° S 21:29:42 20° SSE
Cosmos 2112 Rocket 4.1 21:28:34 21° S 21:32:03 57° ESE 21:37:18 10° NNE
USA 245 4.1 21:30:37 21° SSW 21:32:51 47° W 21:37:14 10° NNW
Cosmos 1869 3.3 21:29:54 10° N 21:33:56 73° E 21:35:28 36° SSE
Spot 2 Rocket 4.0 21:30:33 17° S 21:34:19 54° W 21:39:21 10° NNW
Cosmos 1842 Rocket 3.5 21:33:23 10° N 21:37:44 84° W 21:39:45 31° S
DELTA 2 R/B (1) 3.5 21:33:45 10° W 21:39:18 70° S 21:43:27 18° E
Cosmos 2058 2.9 21:37:54 37° SSE 21:39:22 62° E 21:43:27 10° NNE
Cosmos 2278 Rocket 2.2 21:35:09 10° NNW 21:40:52 87° WSW 21:43:46 30° SSE
NOSS 0 Rocket 4.2 21:39:31 10° SW 21:45:37 68° WNW 21:51:48 10° NNE
Cosmos 44 3.0 21:44:55 37° S 21:46:17 54° ESE 21:50:34 10° NE
Cosmos 2056 Rocket 4.2 21:43:30 10° N 21:48:43 45° ENE 21:50:54 30° ESE
SL-16 R/B 2.7 21:49:05 33° SE 21:50:35 39° ESE 21:55:50 10° NE
Elektron 1 4.2 21:49:11 15° SW 21:51:30 73° NW 21:55:54 10° NE
Nadezhda 3 Rocket 4.2 21:46:01 10° N 21:52:19 61° E 21:55:11 33° SSE
Cosmos 2154 Rocket 3.9 21:51:39 29° S 21:54:58 70° E 22:01:10 10° NNE
Cosmos 2074 Rocket 4.1 21:50:35 16° SSW 21:55:37 73° W 22:01:50 10° N
In-Cosmos 22 Rocket 4.1 21:53:15 23° SSW 21:56:36 80° W 22:01:58 10° N
CARTOSAT-1 4.0 21:56:37 33° SSW 21:58:20 56° W 22:02:35 10° NNW
Cosmos 1680 Rocket 3.7 21:54:08 14° SSW 21:58:46 72° WNW 22:04:06 10° NNE
SPOT 5 3.0 21:57:57 33° S 22:00:06 67° WSW 22:04:49 10° NNW
Cosmos 1825 2.6 22:01:49 44° E 22:01:49 44° E 22:05:20 10° NNE
Atlas Centaur 2 4.3 21:59:31 10° SW 22:00:51 12° SSW 22:00:51 12° SSW
Cosmos 2221 3.2 22:00:29 10° NNW 22:04:42 49° W 22:06:23 31° SSW
Cosmos 2341 Rocket 4.4 22:03:39 34° SE 22:05:43 46° E 22:11:36 10° NNE
COSMOS 2455 4.2 22:04:10 10° NNW 22:09:27 30° NE 22:12:49 18° E
ATLAS CENTAUR R/B 3.6 22:09:22 10° W 22:10:36 11° WSW 22:11:24 11° WSW
Cosmos 371 Rocket 4.4 22:07:01 10° N 22:11:21 31° ENE 22:12:39 27° E
NOSS 3-4 (A) 3.9 22:05:48 10° NW 22:12:56 82° SW 22:16:34 35° SSE
NOSS 3-4 (C) 3.9 22:05:55 10° NW 22:13:02 83° WSW 22:16:41 35° SSE
MTI 4.1 22:13:57 10° N 22:16:31 59° N 22:16:31 59° N
Cosmos 1295 Rocket 4.4 22:17:06 36° S 22:19:50 86° E 22:25:58 10° N
Gbstr 26 Del rocket 2.6 22:18:09 10° WSW 22:21:52 77° NW 22:25:44 10° NE
Aureole 2 Rocket 3.2 22:22:02 10° NNW 22:24:08 41° N 22:24:08 41° N
Cosmos 2369 Rocket 3.8 22:24:39 10° N 22:29:09 24° NE 22:31:45 18° E
Cosmos 2151 2.8 22:29:12 74° SSE 22:29:34 84° E 22:33:51 10° N
Cosmos 1408 3.3 22:30:14 42° W 22:30:36 44° W 22:34:03 10° N
Terra 2.5 22:29:14 35° SW 22:30:38 45° W 22:35:12 10° NNW
MOS 1-B Rocket 4.4 22:24:36 10° NNE 22:31:35 54° E 22:33:20 42° SE
Lacrosse 5 rocket 3.5 22:28:40 10° NNW 22:31:45 21° NNE 22:33:47 14° ENE
Cosmos 1328 Rocket 4.4 22:27:48 10° N 22:31:48 36° ENE 22:31:54 35° E
Cosmos 1766 Rocket 3.7 22:32:47 57° E 22:32:49 57° E 22:37:10 10° NNE
Cosmos 962 Rocket 4.4 22:32:15 40° S 22:34:43 88° E 22:41:08 10° N
Cosmos 1624 Rocket 4.1 22:32:48 10° NNW 22:38:00 68° WSW 22:39:05 52° SSW
ATLAS 2AS CENTAUR R/B 3.0 22:33:04 10° NW 22:40:23 60° WSW 22:42:43 41° S
Meteor 2-3 Rocket 4.1 22:40:15 42° ESE 22:41:01 45° E 22:46:25 10° NNE
CZ-4C R/B 4.1 22:38:09 10° NNW 22:44:39 36° NE 22:50:52 14° ESE
USA 215 3.4 22:38:10 10° NE 22:44:43 75° NW 22:51:14 10° WSW
Cosmos 2237 Rocket 4.0 22:41:48 10° WSW 22:46:42 29° NW 22:51:38 10° N
Okean 3 Rocket 3.5 22:52:12 70° WSW 22:52:32 74° W 22:56:58 10° N
IRIDIUM 106 4.4 22:53:01 57° ESE 22:53:35 61° E 22:58:44 10° N
EO 1 Del DPAF 3.6 23:01:24 10° N 23:04:35 60° N 23:04:35 60° N
BREEZE-M DEB (TANK) 4.2 23:02:43 10° WNW 23:04:46 19° W 23:04:46 19° W
Cosmos 1151 Rocket 3.0 23:01:50 10° N 23:05:57 80° NNW 23:05:57 80° NNW
BREEZE-M DEB (TANK) 3.2 23:07:00 29° W 23:08:37 61° NNW 23:16:52 10° ENE
Cosmos 1943 Rocket 2.3 23:03:57 10° NNW 23:09:38 67° ENE 23:10:41 55° ESE
Cosmos 864 Rocket 4.4 23:08:32 55° S 23:10:02 85° E 23:16:23 10° N
Cosmos 2228 Rocket 4.3 23:08:23 10° N 23:12:30 33° ENE 23:12:32 33° ENE
Cosmos 1606 3.5 23:09:37 10° NNW 23:12:54 48° WNW 23:12:54 48° WNW
Cosmos 468 4.3 23:13:56 73° SSE 23:14:16 77° ESE 23:19:31 10° NNE
Thor Agena Rocket 3.7 23:09:19 10° N 23:14:20 63° WNW 23:15:22 50° WSW
USA 267 3.4 23:12:07 30° ESE 23:15:31 69° NE 23:22:03 10° NW
Meteor 2-12 Rocket 4.4 23:15:48 52° SSW 23:17:21 78° W 23:23:31 10° N
Cosmos 1420 Rocket 4.2 23:12:21 10° NNW 23:17:33 58° WSW 23:18:00 56° SW
Cosmos 1408 Rocket 3.6 23:19:41 74° WNW 23:19:41 74° WNW 23:23:57 10° N
Cosmos 2366 rocket 4.0 23:18:37 51° SSW 23:20:19 79° W 23:26:42 10° N
Cosmos 2218 Rocket 4.1 23:20:06 49° SSW 23:21:52 73° W 23:28:11 10° N
Cosmos 1943 3.4 23:23:21 51° ESE 23:23:23 51° ESE 23:28:50 10° NE
Cosmos 2278 Rocket 4.5 23:22:23 10° WNW 23:24:00 11° W 23:25:37 10° WSW
Cosmos 332 Rocket 3.7 23:19:34 10° NNW 23:24:18 75° W 23:24:18 75° W
Cosmos 1346 Rocket 3.3 23:25:21 55° N 23:25:21 55° N 23:28:30 10° N
Lacrosse 5 4.1 23:28:00 13° E 23:28:00 13° E 23:28:56 10° ENE
DELTA 2 R/B (1) 4.1 23:20:05 10° W 23:24:11 44° WSW 23:24:11 44° WSW
Cosmos 1933 4.0 23:21:41 10° NNW 23:25:03 48° WNW 23:25:03 48° WNW
BREEZE-M DEB (TANK) 3.9 23:23:58 10° NW 23:25:11 20° NW 23:25:11 20° NW
Cosmos 1821 Rocket 4.3 23:26:32 45° ESE 23:27:23 48° E 23:33:12 10° NNE
Cosmos 1782 3.5 23:25:39 10° N 23:28:48 51° NNE 23:28:48 51° NNE
Cosmos 1500 Rocket 3.8 23:31:01 61° NE 23:31:01 61° NE 23:34:50 10° NNE
Cosmos 2297 4.4 23:27:04 10° NW 23:32:19 38° WSW 23:32:49 37° WSW
Cosmos 1340 4.0 23:34:47 34° WNW 23:34:47 34° WNW 23:37:49 10° N
SL-16 R/B 3.7 23:30:54 15° WSW 23:34:45 32° NW 23:39:50 10° N
Cosmos 1048 Rocket 4.0 23:36:08 64° WSW 23:36:47 73° WNW 23:42:03 10° NNE
Nimbus 7 Rocket 4.4 23:33:12 10° N 23:39:06 73° WNW 23:40:24 54° SW
ALOS 2 2.8 23:42:33 63° WNW 23:42:33 63° WNW 23:46:29 10° NNW
Cosmos 1633 3.9 23:47:54 37° NNW 23:47:54 37° NNW 23:50:24 10° N
Cosmos 1805 Rocket 4.3 23:49:06 45° ENE 23:49:06 45° ENE 23:52:38 10° NNE
